[[{"header":{"parameterUnit":"m.s-1","parameterCategory":1,"la1":30.2991,"la2":30.254,"lo1":-89.0895,"lo2":-89.0444,"dy":0.0017,"dx":0.0017,"nx":28,"ny":28,"refTime":"2025-03-02T09:00:00:Z","depth":0,"parameterNumber":2,"parameterNumberName":"U-component_of_WINDS"},"data":[0,0,0,0,0,0,0,0,0,0,0,0,0,0,0,0,0,0,0,0,0,0,0,0,0,0,0,0,0,0,0,0,0,0,0,0,0,0,0,0,0,0,0,0,0,0,0,0,0,0,0,0,0,0,0,0,0,0,-1.2336,-1.2335,0,-1.2306,-1.2306,-1.2305,-1.2283,-1.2283,-1.2282,-1.2282,-1.2252,-1.2252,-1.2251,0,0,0,0,0,0,0,0,0,0,0,0,0,-1.2374,-1.2373,-1.2336,-1.2335,-1.2335,-1.2306,-1.2306,-1.2305,-1.2283,-1.2282,-1.2282,-1.2282,-1.2252,-1.2252,-1.2251,0,0,0,0,0,0,0,0,0,0,0,0,0,-1.2352,-1.2373,-1.2336,-1.232,-1.2319,-1.2306,-1.2306,-1.2305,-1.2283,-1.2282,-1.2282,-1.2282,-1.2253,-1.2252,-1.2251,-1.2252,0,0,-1.2248,-1.2248,0,0,0,0,0,0,0,0,-1.2353,-1.2351,-1.2323,-1.2321,-1.2319,-1.2298,-1.2308,-1.2287,-1.2283,-1.2296,-1.2282,-1.2282,-1.2268,-1.2266,-1.2261,-1.2251,-1.2249,-1.2248,-1.2248,-1.2247,-1.2247,0,0,0,0,0,0,0,-1.2355,-1.2352,-1.2324,-1.2323,-1.232,-1.2315,-1.2312,-1.2304,-1.2284,-1.2295,-1.2293,-1.229,-1.2267,-1.2262,-1.226,-1.2249,-1.2248,-1.2247,-1.2247,-1.2246,-1.2239,-1.2239,0,0,0,0,0,0,-1.2359,-1.2353,-1.2325,-1.2323,-1.2336,-1.2315,-1.2311,-1.2305,-1.2284,-1.2281,-1.2291,-1.2289,-1.2263,-1.2261,-1.2259,-1.2259,-1.2247,-1.2246,-1.2246,-1.2239,-1.2239,-1.224,0,0,0,0,0,0,-1.2359,-1.2356,-1.2326,-1.2338,-1.2333,-1.2314,-1.2308,-1.2305,-1.23,-1.2281,-1.2277,-1.2289,-1.2263,-1.226,-1.2254,-1.2258,-1.2246,-1.2245,-1.2238,-1.2239,-1.2239,-1.226,0,0,0,0,0,0,-1.2361,-1.2357,-1.2357,-1.2338,-1.2333,-1.2322,-1.2308,-1.2304,-1.2298,-1.2296,-1.2278,-1.2275,-1.2262,-1.2255,-1.2253,-1.2256,-1.2244,-1.2238,-1.2239,-1.2239,-1.2259,-1.2261,-1.2263,0,0,0,0,0,-1.2362,-1.2363,-1.2357,-1.2353,-1.2332,-1.2322,-1.2319,-1.2304,-1.2298,-1.2298,-1.2287,-1.2276,-1.2258,-1.2255,-1.2252,-1.2255,-1.2238,-1.2238,-1.2239,-1.2258,-1.2261,-1.2263,0,0,0,0,0,0,-1.2383,-1.2361,-1.2353,-1.2348,-1.2337,-1.2318,-1.2318,-1.2308,-1.2298,-1.2297,-1.2279,-1.2275,-1.2272,-1.2263,-1.226,-1.2256,-1.2246,-1.2247,-1.2262,-1.2264,-1.2266,-1.2269,-1.2244,0,0,0,0,0,-1.2387,-1.238,-1.2361,-1.2359,-1.2354,-1.2337,-1.2332,-1.2321,-1.2309,-1.2304,-1.2292,-1.2281,-1.2273,-1.2268,-1.2259,-1.2257,-1.2254,-1.2258,-1.226,-1.2262,-1.2263,-1.2262,-1.2264,-1.2242,-1.2242,-1.2242,0,0,-1.2395,-1.2382,-1.2379,-1.2363,-1.2353,-1.2347,-1.2333,-1.2327,-1.2322,-1.2304,-1.2297,-1.2288,-1.2274,-1.2271,-1.2269,-1.2263,-1.2268,-1.2263,-1.2265,-1.2264,-1.2263,-1.2265,-1.2267,-1.2243,-1.2242,-1.2242,0,0,-1.2408,-1.2397,-1.2394,-1.2385,-1.237,-1.2359,-1.2358,-1.2341,-1.2334,-1.2328,-1.2314,-1.2308,-1.2295,-1.2286,-1.228,-1.2289,-1.228,-1.2287,-1.2298,-1.2298,-1.23,-1.2301,-1.2305,-1.2307,-1.2288,-1.2288,-1.2288,0,-1.242,-1.241,-1.2394,-1.2389,-1.2382,-1.2365,-1.2363,-1.2355,-1.2338,-1.2335,-1.2329,-1.2312,-1.2302,-1.2296,-1.2299,-1.2294,-1.2293,-1.2289,-1.23,-1.2302,-1.2303,-1.2307,-1.2309,-1.2289,-1.2289,-1.2289,-1.2288,0,-1.2426,-1.2419,-1.2419,-1.2403,-1.2397,-1.2393,-1.2377,-1.2373,-1.2363,-1.2353,-1.2347,-1.2334,-1.2323,-1.2321,-1.2312,-1.2315,-1.2312,-1.2304,-1.2294,-1.2306,-1.231,-1.2311,-1.229,-1.229,-1.229,-1.2289,0,0,-1.245,-1.2427,-1.2427,-1.242,-1.2403,-1.2398,-1.2394,-1.2383,-1.238,-1.2369,-1.2366,-1.2355,-1.2348,-1.2341,-1.233,-1.233,-1.234,-1.2321,-1.2321,-1.2326,-1.2343,-1.235,-1.2352,-1.2333,-1.2333,-1.2333,-1.2345,0,-1.246,-1.2451,-1.2437,-1.2434,-1.2428,-1.2412,-1.2408,-1.2398,-1.2389,-1.2382,-1.2372,-1.2365,-1.2355,-1.2351,-1.235,-1.2339,-1.2343,-1.2338,-1.233,-1.233,-1.2335,-1.2354,-1.2361,-1.2372,-1.2346,-1.2346,-1.2346,0,-1.247,-1.2461,-1.2457,-1.2441,-1.2438,-1.2435,-1.2425,-1.2419,-1.2407,-1.24,-1.2393,-1.2382,-1.2377,-1.2368,-1.2362,-1.2359,-1.2355,-1.235,-1.235,-1.2349,-1.2339,-1.2354,-1.2375,-1.2377,-1.2348,-1.2348,-1.2348,0,-1.2489,-1.2476,-1.2471,-1.2466,-1.2448,-1.2446,-1.2438,-1.2426,-1.2421,-1.2412,-1.2409,-1.2399,-1.2394,-1.2388,-1.2375,-1.2369,-1.2371,-1.236,-1.2365,-1.2366,-1.2367,-1.2367,-1.2388,-1.2363,-1.2363,-1.2363,-1.2363,0,-1.2502,-1.25,-1.248,-1.2477,-1.2475,-1.2459,-1.2458,-1.2449,-1.2438,-1.2434,-1.242,-1.2417,-1.2399,-1.2394,-1.2384,-1.2381,-1.2378,-1.2373,-1.2371,-1.2375,-1.2376,-1.2373,-1.2372,-1.2364,-1.2364,-1.2363,-1.2363,0,-1.2523,-1.2509,-1.2504,-1.2487,-1.2483,-1.2482,-1.2468,-1.2465,-1.2455,-1.245,-1.2448,-1.2432,-1.2425,-1.2412,-1.2401,-1.2394,-1.2394,-1.2389,-1.2398,-1.2396,-1.2403,-1.2403,-1.2423,-1.2426,-1.2399,-1.2399,-1.2399,0,-1.2532,-1.2531,-1.2514,-1.251,-1.2503,-1.2497,-1.2492,-1.2477,-1.2472,-1.2459,-1.2458,-1.245,-1.2443,-1.2433,-1.2421,-1.2413,-1.2408,-1.2416,-1.2407,-1.2412,-1.2409,-1.241,-1.241,-1.2418,-1.2419,-1.2419,-1.2419,0,-1.2551,-1.2544,-1.2537,-1.2528,-1.2522,-1.2514,-1.2506,-1.2503,-1.2486,-1.2482,-1.2475,-1.2469,-1.2459,-1.2452,-1.2442,-1.2434,-1.2424,-1.2422,-1.2423,-1.2428,-1.2433,-1.2431,-1.2404,-1.2422,-1.2421,-1.2421,-1.2421,-1.2421,-1.2567,-1.2565,-1.2553,-1.2546,-1.2538,-1.253,-1.2527,-1.2517,-1.2511,-1.2501,-1.2492,-1.2487,-1.2476,-1.2462,-1.2455,-1.2451,-1.2446,-1.2447,-1.2447,-1.2448,-1.245,-1.2434,-1.2449,-1.2449,-1.2449,-1.2449,-1.2448,0,-1.2585,-1.2577,-1.2571,-1.2559,-1.2554,-1.2544,-1.2535,-1.2531,-1.2526,-1.2517,-1.251,-1.2503,-1.2496,-1.2483,-1.2475,-1.2474,-1.247,-1.2473,-1.2473,-1.2472,-1.2455,-1.2455,-1.2477,-1.2477,-1.2477,-1.2477,-1.2477,-1.2477,-1.2594,-1.2591,-1.2583,-1.2576,-1.2568,-1.2562,-1.2557,-1.2551,-1.2543,-1.2535,-1.253,-1.2522,-1.2511,-1.2503,-1.2496,-1.2493,-1.2491,-1.2496,-1.2492,-1.2476,-1.2473,-1.247,-1.2471,-1.2496,-1.2496,-1.2509,-1.2509,-1.251]},{"header":{"parameterUnit":"m.s-1","parameterCategory":1,"la1":30.2991,"la2":30.254,"lo1":-89.0895,"lo2":-89.0444,"dy":0.0017,"dx":0.0017,"nx":28,"ny":28,"refTime":"2025-03-02T09:00:00:Z","depth":0,"parameterNumber":3,"parameterNumberName":"V-component_of_WINDS"},"data":[0,0,0,0,0,0,0,0,0,0,0,0,0,0,0,0,0,0,0,0,0,0,0,0,0,0,0,0,0,0,0,0,0,0,0,0,0,0,0,0,0,0,0,0,0,0,0,0,0,0,0,0,0,0,0,0,0,0,-1.3128,-1.313,0,-1.3315,-1.3317,-1.3319,-1.3423,-1.3424,-1.3424,-1.3424,-1.3619,-1.3624,-1.3628,0,0,0,0,0,0,0,0,0,0,0,0,0,-1.2863,-1.2867,-1.3127,-1.313,-1.3132,-1.3314,-1.3317,-1.332,-1.3423,-1.3424,-1.3424,-1.3424,-1.3617,-1.3623,-1.3629,0,0,0,0,0,0,0,0,0,0,0,0,0,-1.3007,-1.2869,-1.3127,-1.3206,-1.3215,-1.3314,-1.3317,-1.332,-1.3423,-1.3424,-1.3424,-1.3425,-1.3615,-1.3622,-1.363,-1.3666,0,0,-1.3652,-1.3655,0,0,0,0,0,0,0,0,-1.2998,-1.3016,-1.3192,-1.32,-1.3211,-1.3346,-1.3295,-1.3436,-1.3423,-1.3344,-1.3424,-1.3425,-1.3528,-1.3542,-1.3577,-1.3675,-1.3683,-1.3653,-1.3657,-1.366,-1.3662,0,0,0,0,0,0,0,-1.2988,-1.3009,-1.3202,-1.3194,-1.3206,-1.3233,-1.3254,-1.3322,-1.3431,-1.3351,-1.3359,-1.338,-1.3533,-1.3569,-1.3582,-1.3686,-1.3652,-1.3659,-1.3664,-1.3666,-1.3826,-1.3826,0,0,0,0,0,0,-1.2965,-1.3,-1.3196,-1.3207,-1.3103,-1.3237,-1.3261,-1.3302,-1.3431,-1.3451,-1.3379,-1.3384,-1.3557,-1.3573,-1.3589,-1.3642,-1.366,-1.3667,-1.3671,-1.3826,-1.3826,-1.3826,0,0,0,0,0,0,-1.2959,-1.2982,-1.3188,-1.3106,-1.3134,-1.3241,-1.3287,-1.3306,-1.3342,-1.3452,-1.3472,-1.3396,-1.3558,-1.3579,-1.3646,-1.365,-1.367,-1.3677,-1.3826,-1.3826,-1.3826,-1.3746,0,0,0,0,0,0,-1.2951,-1.2979,-1.2993,-1.3105,-1.3138,-1.3241,-1.3287,-1.3309,-1.3354,-1.3362,-1.3473,-1.3492,-1.356,-1.3635,-1.3654,-1.366,-1.3683,-1.3827,-1.3826,-1.3826,-1.3748,-1.3743,-1.3738,0,0,0,0,0,-1.2941,-1.2963,-1.2993,-1.3016,-1.3158,-1.3241,-1.326,-1.3336,-1.3354,-1.337,-1.344,-1.3488,-1.3646,-1.3641,-1.3663,-1.3672,-1.3827,-1.3826,-1.3826,-1.3751,-1.3744,-1.3738,0,0,0,0,0,0,-1.2849,-1.2979,-1.3014,-1.3072,-1.3144,-1.3258,-1.328,-1.3326,-1.3395,-1.34,-1.3493,-1.3518,-1.3576,-1.3631,-1.3623,-1.3715,-1.3742,-1.3746,-1.3677,-1.3671,-1.3666,-1.3652,-1.3689,0,0,0,0,0,-1.2835,-1.289,-1.3002,-1.3043,-1.3077,-1.3172,-1.3211,-1.3264,-1.3343,-1.3374,-1.345,-1.3526,-1.3593,-1.3635,-1.3703,-1.3757,-1.3783,-1.3774,-1.3768,-1.3763,-1.3766,-1.3801,-1.3798,-1.3825,-1.3825,-1.3825,0,0,-1.2807,-1.2885,-1.2915,-1.3026,-1.3088,-1.3145,-1.3197,-1.3254,-1.3298,-1.3383,-1.3452,-1.351,-1.3601,-1.3662,-1.3693,-1.3709,-1.3765,-1.3763,-1.3758,-1.3764,-1.38,-1.3798,-1.3795,-1.3824,-1.3824,-1.3825,0,0,-1.2786,-1.285,-1.2892,-1.2953,-1.3047,-1.311,-1.312,-1.3227,-1.3269,-1.3338,-1.3404,-1.3458,-1.3571,-1.3633,-1.368,-1.3683,-1.3731,-1.3703,-1.3675,-1.3708,-1.3706,-1.3704,-1.3707,-1.3707,-1.3705,-1.3705,-1.3705,0,-1.274,-1.2827,-1.2908,-1.2962,-1.301,-1.3089,-1.3133,-1.3189,-1.3299,-1.3331,-1.3348,-1.3492,-1.3559,-1.3637,-1.3637,-1.3672,-1.3688,-1.3691,-1.3699,-1.3699,-1.3699,-1.3702,-1.3703,-1.3701,-1.3701,-1.3702,-1.3702,0,-1.2767,-1.2827,-1.2849,-1.2954,-1.3004,-1.3053,-1.3142,-1.3183,-1.3232,-1.3294,-1.3365,-1.3448,-1.3534,-1.3556,-1.3604,-1.3642,-1.3649,-1.3681,-1.371,-1.3691,-1.3696,-1.3698,-1.3695,-1.3697,-1.3698,-1.3699,0,0,-1.2693,-1.2842,-1.2849,-1.2898,-1.3007,-1.3056,-1.3108,-1.3192,-1.3227,-1.3301,-1.3349,-1.3443,-1.3473,-1.3526,-1.3582,-1.3611,-1.361,-1.364,-1.3643,-1.3632,-1.3659,-1.3635,-1.3635,-1.3642,-1.3642,-1.3643,-1.3651,0,-1.2689,-1.2786,-1.2861,-1.2931,-1.2988,-1.3065,-1.3111,-1.3184,-1.3243,-1.3301,-1.3367,-1.3433,-1.3468,-1.35,-1.3532,-1.3603,-1.3617,-1.3604,-1.3689,-1.3691,-1.3665,-1.3637,-1.3612,-1.3616,-1.3654,-1.3654,-1.3654,0,-1.2697,-1.2768,-1.2843,-1.2948,-1.2975,-1.3015,-1.3099,-1.3152,-1.3237,-1.3279,-1.3337,-1.3396,-1.3457,-1.3479,-1.3566,-1.3555,-1.3595,-1.3635,-1.3637,-1.3649,-1.3672,-1.365,-1.3619,-1.362,-1.3658,-1.3658,-1.3658,0,-1.2637,-1.2751,-1.2812,-1.2851,-1.2974,-1.3001,-1.3054,-1.3139,-1.3185,-1.3259,-1.329,-1.3369,-1.3413,-1.3474,-1.3553,-1.3562,-1.3632,-1.3661,-1.367,-1.3668,-1.3682,-1.368,-1.3658,-1.3704,-1.3704,-1.3704,-1.3704,0,-1.2625,-1.2668,-1.2787,-1.2824,-1.2876,-1.2961,-1.301,-1.307,-1.3145,-1.3197,-1.3268,-1.3314,-1.3415,-1.3474,-1.3536,-1.36,-1.3619,-1.3655,-1.3671,-1.3649,-1.3645,-1.3677,-1.368,-1.3705,-1.3705,-1.3705,-1.3705,0,-1.2567,-1.2647,-1.2719,-1.2829,-1.2858,-1.2892,-1.2988,-1.3027,-1.3091,-1.3155,-1.3175,-1.3275,-1.3349,-1.3433,-1.3535,-1.3577,-1.3636,-1.3659,-1.3607,-1.3616,-1.3621,-1.362,-1.362,-1.3625,-1.3666,-1.3665,-1.3665,0,-1.2554,-1.259,-1.2704,-1.2743,-1.2794,-1.2856,-1.2904,-1.299,-1.3036,-1.3136,-1.3164,-1.3244,-1.3312,-1.3426,-1.3509,-1.3588,-1.3614,-1.3609,-1.3626,-1.3604,-1.3616,-1.3613,-1.3618,-1.3604,-1.3603,-1.3602,-1.3602,0,-1.2524,-1.2563,-1.2628,-1.2707,-1.2762,-1.2829,-1.2899,-1.2927,-1.3028,-1.3077,-1.3153,-1.3205,-1.3309,-1.3388,-1.3477,-1.3533,-1.3585,-1.3595,-1.3602,-1.3581,-1.355,-1.3568,-1.3595,-1.3595,-1.3596,-1.3596,-1.3597,-1.3597,-1.2491,-1.2526,-1.2612,-1.2683,-1.2745,-1.2809,-1.2852,-1.2921,-1.2985,-1.3076,-1.3123,-1.3199,-1.3285,-1.341,-1.3464,-1.3526,-1.3543,-1.3552,-1.3555,-1.3556,-1.355,-1.3538,-1.3542,-1.3543,-1.3543,-1.3543,-1.3543,0,-1.2466,-1.2525,-1.2589,-1.2685,-1.274,-1.2783,-1.2863,-1.2907,-1.2973,-1.3048,-1.3113,-1.3201,-1.3278,-1.3366,-1.3449,-1.3482,-1.3508,-1.3501,-1.35,-1.3512,-1.353,-1.3516,-1.3478,-1.3478,-1.3478,-1.3478,-1.3478,-1.3478,-1.2459,-1.2522,-1.2571,-1.2666,-1.2725,-1.2799,-1.2842,-1.2902,-1.2962,-1.3057,-1.3121,-1.3178,-1.3259,-1.3348,-1.3421,-1.3446,-1.3473,-1.346,-1.3491,-1.3505,-1.3511,-1.3516,-1.3504,-1.3465,-1.3464,-1.3469,-1.3469,-1.3469]}]]